TimeCET,TemperatureF,Dew PointF,Humidity,Sea Level PressureIn,VisibilityMPH,Wind Direction,Wind SpeedMPH,Gust SpeedMPH,PrecipitationIn,Events,Conditions,WindDirDegrees,DateUTC
12:20 AM,39.2,33.8,81,29.59,3.7,North,4.6,-,N/A,,Unknown,360,2013-01-18 23:20:00
12:50 AM,37.4,33.8,87,29.59,3.7,NNW,2.3,-,N/A,,Unknown,330,2013-01-18 23:50:00
1:20 AM,37.4,33.8,87,29.62,3.7,Variable,2.3,-,N/A,,Unknown,0,2013-01-19 00:20:00
1:50 AM,35.6,32.0,87,29.62,5.0,Variable,1.2,-,N/A,,Unknown,0,2013-01-19 00:50:00
2:20 AM,35.6,33.8,93,29.62,5.0,Variable,1.2,-,N/A,,Unknown,0,2013-01-19 01:20:00
2:50 AM,33.8,32.0,93,29.62,5.0,West,2.3,-,N/A,,Unknown,260,2013-01-19 01:50:00
3:20 AM,33.8,32.0,93,29.62,5.0,Variable,2.3,-,N/A,,Unknown,0,2013-01-19 02:20:00
3:50 AM,33.8,32.0,93,29.62,3.7,Variable,2.3,-,N/A,,Unknown,0,2013-01-19 02:50:00
4:20 AM,32.0,30.2,93,29.62,3.7,Variable,2.3,-,N/A,,Unknown,0,2013-01-19 03:20:00
4:50 AM,35.6,33.8,93,29.62,3.7,NNE,4.6,-,N/A,,Unknown,20,2013-01-19 03:50:00
5:20 AM,32.0,30.2,93,29.65,3.7,Variable,2.3,-,N/A,,Unknown,0,2013-01-19 04:20:00
6:20 AM,35.6,33.8,93,29.65,5.0,South,1.2,-,N/A,,Unknown,190,2013-01-19 05:20:00
6:50 AM,37.4,33.8,87,29.65,5.0,Variable,1.2,-,N/A,,Partly Cloudy,0,2013-01-19 05:50:00
7:20 AM,37.4,35.6,93,29.65,6.2,Variable,2.3,-,N/A,,Scattered Clouds,0,2013-01-19 06:20:00
7:50 AM,37.4,33.8,87,29.65,6.2,ENE,3.5,-,N/A,,Scattered Clouds,70,2013-01-19 06:50:00
8:20 AM,37.4,33.8,87,29.65,6.2,Variable,1.2,-,N/A,,Scattered Clouds,0,2013-01-19 07:20:00
8:50 AM,39.2,35.6,87,29.65,6.2,Variable,1.2,-,N/A,,Scattered Clouds,0,2013-01-19 07:50:00
9:20 AM,42.8,37.4,81,29.65,6.2,Variable,2.3,-,N/A,,Scattered Clouds,0,2013-01-19 08:20:00
9:50 AM,42.8,37.4,81,29.68,6.2,Variable,2.3,-,N/A,,Scattered Clouds,0,2013-01-19 08:50:00
10:20 AM,44.6,37.4,76,29.68,6.2,Variable,2.3,-,N/A,,Scattered Clouds,0,2013-01-19 09:20:00
10:50 AM,46.4,37.4,71,29.68,6.2,North,2.3,-,N/A,,Scattered Clouds,10,2013-01-19 09:50:00
11:20 AM,48.2,39.2,71,29.68,6.2,NE,2.3,-,N/A,,Scattered Clouds,40,2013-01-19 10:20:00
11:50 AM,48.2,37.4,66,29.65,6.2,Calm,Calm,-,N/A,Rain,Light Rain,0,2013-01-19 10:50:00
12:20 PM,48.2,39.2,71,29.65,6.2,NE,4.6,-,N/A,Rain,Light Rain,40,2013-01-19 11:20:00
12:50 PM,48.2,39.2,71,29.65,6.2,NE,3.5,-,N/A,Rain,Light Rain,40,2013-01-19 11:50:00
1:20 PM,48.2,41.0,76,29.62,5.0,NE,4.6,-,N/A,Rain,Light Rain,40,2013-01-19 12:20:00
1:50 PM,48.2,41.0,76,29.62,4.3,NNE,3.5,-,N/A,Rain,Light Rain,30,2013-01-19 12:50:00
2:20 PM,48.2,42.8,82,29.62,6.2,NE,4.6,-,N/A,,Light Drizzle,50,2013-01-19 13:20:00
2:50 PM,48.2,42.8,82,29.62,6.2,East,5.8,-,N/A,,Mostly Cloudy,90,2013-01-19 13:50:00
3:20 PM,48.2,42.8,82,29.59,6.2,East,4.6,-,N/A,,Light Drizzle,80,2013-01-19 14:20:00
3:50 PM,48.2,44.6,87,29.59,3.7,ENE,4.6,-,N/A,,Drizzle,60,2013-01-19 14:50:00
4:20 PM,48.2,44.6,87,29.59,3.7,ENE,4.6,-,N/A,,Light Drizzle,60,2013-01-19 15:20:00
4:50 PM,48.2,44.6,87,29.59,3.7,ENE,4.6,-,N/A,,Light Drizzle,60,2013-01-19 15:50:00
5:20 PM,48.2,44.6,87,29.59,3.7,ENE,5.8,-,N/A,Rain,Light Rain,70,2013-01-19 16:20:00
5:50 PM,48.2,46.4,93,29.62,3.7,NE,4.6,-,N/A,Rain,Light Rain,40,2013-01-19 16:50:00
6:20 PM,48.2,46.4,93,29.62,3.1,NE,4.6,-,N/A,Rain,Light Rain,40,2013-01-19 17:20:00
6:50 PM,48.2,46.4,93,29.62,3.1,NNE,4.6,-,N/A,Rain,Light Rain,30,2013-01-19 17:50:00
7:20 PM,48.2,46.4,93,29.62,3.1,NNE,4.6,-,N/A,Rain,Rain,20,2013-01-19 18:20:00
7:50 PM,48.2,46.4,93,29.62,4.3,NNE,5.8,-,N/A,,Overcast,30,2013-01-19 18:50:00
8:20 PM,50.0,46.4,87,29.62,4.3,Variable,2.3,-,N/A,Rain,Light Rain,0,2013-01-19 19:20:00
8:50 PM,50.0,46.4,87,29.62,4.3,NNW,4.6,-,N/A,Rain,Light Rain,340,2013-01-19 19:50:00
9:20 PM,50.0,46.4,87,29.59,4.3,Variable,2.3,-,N/A,Rain,Rain,0,2013-01-19 20:20:00
9:50 PM,51.8,50.0,94,29.59,4.3,Variable,2.3,-,N/A,Rain,Light Rain,0,2013-01-19 20:50:00
10:20 PM,55.4,51.8,88,29.62,6.2,South,3.5,-,N/A,,Mostly Cloudy,190,2013-01-19 21:20:00
10:50 PM,55.4,51.8,88,29.59,6.2,Variable,2.3,-,N/A,,Mostly Cloudy,0,2013-01-19 21:50:00
11:20 PM,55.4,50.0,82,29.59,6.2,South,4.6,-,N/A,,Mostly Cloudy,180,2013-01-19 22:20:00
11:50 PM,55.4,51.8,88,29.59,6.2,South,3.5,-,N/A,,Mostly Cloudy,170,2013-01-19 22:50:00